Hourly Data Report for December 21, 2006

TORONTO CITY
ONTARIO

43°40'00.000" N
79°24'00.000" W
112.50 m
6158355
71508
XTO

Download Data

Hourly Data (December 2006)
Hourly Data Report for December 21, 2006
TIME
LST
Temp Definition
°C
Dew Point Definition
°C
Rel Hum Definition
%
Precip. Amount Definition
mm

Wind Dir Definition
10's deg

Wind Spd Definition
km/h
Visibility Definition
km
Stn Press Definition
kPa
Hmdx Definition


Wind Chill Definition


Weather Definition


00:00 4.9 -3.8 53   LegendMM LegendMM   100.94     LegendNANA
01:00 4.8 -3.7 54   LegendMM LegendMM   100.92     LegendNANA
02:00 5.1 -3.5 54   LegendMM LegendMM   100.91     LegendNANA
03:00 5.3 -2.8 56   LegendMM LegendMM   100.94     LegendNANA
04:00 5.5 -2.3 57   LegendMM LegendMM   100.91     LegendNANA
05:00 5.4 -1.7 60   LegendMM LegendMM   100.93     LegendNANA
06:00 5.0 -1.6 62   LegendMM LegendMM   101.03     LegendNANA
07:00 4.5 -1.3 66   LegendMM LegendMM   101.07     LegendNANA
08:00 3.6 -1.1 71   LegendMM LegendMM   101.15     LegendNANA
09:00 4.3 -0.8 69   LegendMM LegendMM   101.27     LegendNANA
10:00 5.0 -0.1 70   LegendMM LegendMM   101.33     LegendNANA
11:00 6.1 -1.0 60   LegendMM LegendMM   101.33     LegendNANA
12:00 6.9 -1.4 55   LegendMM LegendMM   101.26     LegendNANA
13:00 8.0 -1.5 51   LegendMM LegendMM   101.19     LegendNANA
14:00 7.3 -2.1 51   LegendMM LegendMM   101.22     LegendNANA
15:00 5.7 0.6 70   LegendMM LegendMM   101.25     LegendNANA
16:00 5.1 0.9 74   LegendMM LegendMM   101.31     LegendNANA
17:00 4.8 0.0 71   LegendMM LegendMM   101.38     LegendNANA
18:00 4.5 -0.2 71   LegendMM LegendMM   101.42     LegendNANA
19:00 4.8 -0.2 70   LegendMM LegendMM   101.40     LegendNANA
20:00 5.1 0.0 70   LegendMM LegendMM   101.40     LegendNANA
21:00 4.8 0.3 73   LegendMM LegendMM   101.42     LegendNANA
22:00 4.3 -0.2 73   LegendMM LegendMM   101.36     LegendNANA
23:00 4.0 -1.3 68   LegendMM LegendMM   101.40     LegendNANA

Notes on Data Quality.

Legend

  • E = Estimated
  • M = Missing
  • NA = Not Available*
  • [empty] = Indicates an unobserved value
Date modified: